This is the latest recevied weather packets stored in our database for station/object DK0KTL-4. If no packets are shown the sender has not sent any weather packets the latest 10 day(s).
| Time | Temp. | Humidity | Pressure | Rain* | Wind** | Luminosity | Snow |
|---|---|---|---|---|---|---|---|
| 1777050053 | 17.22° C | 53% | 1017.6 hPa | 0 mm | - | - | - |
| 1777049753 | 17.78° C | 53% | 1017.7 hPa | 0 mm | - | - | - |
| 1777049453 | 17.78° C | 52% | 1017.6 hPa | 0 mm | - | - | - |
| 1777049153 | 17.22° C | 52% | 1017.7 hPa | 0 mm | - | - | - |
| 1777048852 | 17.22° C | 52% | 1017.8 hPa | 0 mm | - | - | - |
| 1777048552 | 17.22° C | 52% | 1017.8 hPa | 0 mm | - | - | - |
| 1777047351 | 18.33° C | 50% | 1017.9 hPa | 0 mm | - | - | - |
| 1777046750 | 18.33° C | 50% | 1018 hPa | 0 mm | - | - | - |
| 1777046450 | 18.33° C | 50% | 1018 hPa | 0 mm | - | - | - |
| 1777045549 | 18.33° C | 51% | 1018.2 hPa | 0 mm | - | - | - |
| 1777044948 | 17.78° C | 51% | 1018.2 hPa | 0 mm | - | - | - |
| 1777044648 | 17.78° C | 51% | 1018.2 hPa | 0 mm | - | - | - |
| 1777044048 | 17.78° C | 52% | 1018.2 hPa | 0 mm | - | - | - |
| 1777043747 | 17.78° C | 51% | 1018.2 hPa | 0 mm | - | - | - |
| 1777041345 | 17.78° C | 51% | 1018.3 hPa | 0 mm | - | - | - |
| 1777040745 | 17.22° C | 52% | 1018.3 hPa | 0 mm | - | - | - |
| 1777039843 | 17.22° C | 52% | 1018.4 hPa | 0 mm | - | - | - |
| 1777039543 | 17.22° C | 53% | 1018.4 hPa | 0 mm | - | - | - |
| 1777039243 | 17.22° C | 51% | 1018.6 hPa | 0 mm | - | - | - |
| 1777038943 | 17.22° C | 54% | 1018.5 hPa | 0 mm | - | - | - |
| 1777038643 | 16.67° C | 54% | 1018.6 hPa | 0 mm | - | - | - |
| 1777038342 | 16.11° C | 54% | 1018.8 hPa | 0 mm | - | - | - |
| 1777038042 | 16.11° C | 55% | 1018.8 hPa | 0 mm | - | - | - |
| 1777037742 | 15.56° C | 55% | 1018.7 hPa | 0 mm | - | - | - |
| 1777037441 | 15.56° C | 56% | 1019 hPa | 0 mm | - | - | - |
* Rain latest hour (hover to see other rain measurements)
** Current wind speed in m/s (hover to see current wind gust speed)